Laramie, WY

8:58 AM MDT on April 25, 2017 (GMT -0600)
Laramie Regional

Weather History for KLAR - February, 2013

Change the Weather History Date:

Sunday, February 17, 2013

  Actual Average Record
Temperature  
Mean Temperature 33 °F 24 °F  
Max Temperature 45 °F 35 °F 57 °F (2016)
Min Temperature 20 °F 12 °F -19 °F (1993)
Degree Days  
Heating Degree Days 32 41  
Month to date heating degree days 699 722  
Since 1 July heating degree days 5360 5737  
Cooling Degree Days 0 0  
Month to date cooling degree days 0 0  
Year to date cooling degree days 0 0  
Moisture  
Dew Point 10 °F    
Average Humidity 48    
Maximum Humidity 77    
Minimum Humidity 19    
Precipitation  
Precipitation T in 0.01 in 0.20 in (1991)
Month to date precipitation 0.03 0.19  
Year to date precipitation 0.18 0.46  
Sea Level Pressure  
Sea Level Pressure 29.70 in    
Wind  
Wind Speed 21 mph (West)    
Max Wind Speed 41 mph    
Max Gust Speed 48 mph    
Visibility 9 miles    
Events Snow    
T = Trace of Precipitation, MM = Missing Value Source: NWS Daily Summary

Daily Weather History Graph

Daily Weather History Graph

Search for Another Location

Airport or City:

Trip Planner

Search our weather history database for the weather conditions in past years. The results will help you decide how hot, cold, wet, or windy it might be!

Date:

Astronomy

Feb. 17, 2013 Rise Set
Actual Time 6:54 AM MST 5:39 PM MST
Civil Twilight 6:26 AM MST 6:07 PM MST
Nautical Twilight 5:53 AM MST 6:40 PM MST
Astronomical Twilight 5:21 AM MST 7:12 PM MST
Moon 10:44 AM MST (2/17) 12:42 AM MST (2/17)
Length of Visible Light 11h 41m
Length of Day
10h 45m
Waxing Crescent, 49% of the Moon is Illuminated
Feb 17
Waxing Crescent
Feb 17
First Quarter
Feb 25
Full
Mar 4
Last Quarter
Mar 11
New

Hourly Weather History & Observations

Time (MST) Temp. Windchill Dew Point Humidity Pressure Visibility Wind Dir Wind Speed Gust Speed Precip Events Conditions
12:53 AM 30.0 °F 17.2 °F 9.0 °F 41% 29.84 in 10.0 mi WSW 20.7 mph - N/A   Clear
1:53 AM 27.0 °F 15.6 °F 9.0 °F 47% 29.86 in 10.0 mi SSW 13.8 mph - N/A   Clear
2:53 AM 28.0 °F 18.6 °F 8.1 °F 43% 29.81 in 10.0 mi SSW 10.4 mph 20.7 mph N/A   Clear
3:53 AM 28.9 °F 14.0 °F 8.1 °F 41% 29.76 in 10.0 mi WSW 27.6 mph - N/A   Clear
4:53 AM 27.0 °F 15.6 °F 7.0 °F 43% 29.80 in 10.0 mi WSW 13.8 mph - N/A   Clear
6:53 AM 26.1 °F 17.6 °F 3.9 °F 39% 29.79 in 10.0 mi South 8.1 mph - N/A   Clear
7:53 AM 28.9 °F 16.5 °F 6.1 °F 38% 29.74 in 10.0 mi SW 18.4 mph - N/A   Clear
8:53 AM 33.1 °F 19.8 °F 7.0 °F 34% 29.70 in 10.0 mi SW 26.5 mph 32.2 mph N/A   Clear
9:53 AM 41.0 °F 29.1 °F 5.0 °F 23% 29.62 in 10.0 mi WSW 34.5 mph 41.4 mph N/A   Clear
10:53 AM 43.0 °F 32.5 °F 5.0 °F 21% 29.60 in 10.0 mi WSW 29.9 mph 41.4 mph N/A   Clear
11:53 AM 44.1 °F 33.3 °F 5.0 °F 20% 29.56 in 10.0 mi West 34.5 mph 47.2 mph N/A   Clear
12:53 PM 44.1 °F 33.2 °F 8.1 °F 23% 29.55 in - West 35.7 mph 47.2 mph N/A   Clear
1:53 PM 43.0 °F 32.2 °F 7.0 °F 23% 29.55 in 10.0 mi West 32.2 mph 42.6 mph N/A   Clear
2:53 PM 42.1 °F 31.0 °F 9.0 °F 26% 29.55 in 10.0 mi West 32.2 mph 38.0 mph N/A   Clear
3:53 PM 39.0 °F 27.0 °F 10.0 °F 30% 29.58 in 10.0 mi West 31.1 mph 36.8 mph N/A   Clear
4:53 PM 32.0 °F 18.1 °F 17.1 °F 54% 29.65 in 10.0 mi NW 27.6 mph 32.2 mph N/A   Clear
5:53 PM 26.1 °F 11.0 °F 19.0 °F 75% 29.72 in 10.0 mi NNW 24.2 mph 29.9 mph N/A   Overcast
6:53 PM 24.1 °F 10.1 °F 15.1 °F 69% 29.76 in 10.0 mi NW 18.4 mph - N/A   Overcast
7:53 PM 25.0 °F 13.6 °F 12.9 °F 60% 29.75 in 10.0 mi WNW 12.7 mph - N/A   Overcast
8:53 PM 25.0 °F 19.3 °F 10.9 °F 55% 29.74 in 10.0 mi North 4.6 mph - N/A   Overcast
10:53 PM 21.0 °F 6.6 °F 16.0 °F 81% 29.72 in 10.0 mi NNW 17.3 mph 24.2 mph N/A   Overcast
11:18 PM 19.4 °F 5.5 °F 17.6 °F 93% 29.75 in 2.5 mi NW 15.0 mph - 0.00 in Snow Light Snow
11:48 PM 19.4 °F 3.6 °F 17.6 °F 93% 29.75 in 5.0 mi WNW 19.6 mph - 0.00 in Snow Light Snow
11:53 PM 19.9 °F 4.8 °F 17.1 °F 89% 29.73 in 5.0 mi WNW 18.4 mph - 0.00 in Snow Light Snow